Weather History for Pitt Meadows, BC

Change the Weather History Date:

Sunday, November 11, 2012

  Actual Average (CYXX) Record (CYXX)
Temperature  
Mean Temperature 34 °F -  
Max Temperature 41 °F 49 °F 60 °F (1996)
Min Temperature 26 °F 37 °F 26 °F (2000)
Degree Days  
Heating Degree Days 32    
Moisture  
Dew Point 32 °F    
Average Humidity 88    
Maximum Humidity 97    
Minimum Humidity 61    
Precipitation  
Precipitation 0.55 in - - ()
Sea Level Pressure  
Sea Level Pressure 30.22 in    
Wind  
Wind Speed 3 mph ()    
Max Wind Speed 12 mph    
Max Gust Speed 18 mph    
Averages and records for this station are not official NWS values.
T = Trace of Precipitation, MM = Missing Value Source: Averaged Metar Reports

Daily Weather History Graph

Daily Weather History Graph

Search for Another Location

Airport:

Trip Planner

Search our weather history database for the weather conditions in past years. The results will help you decide how hot, cold, wet, or windy it might be!

Date:

Astronomy

Nov. 11, 2012 Rise Set
Actual Time 7:15 AM PST 4:33 PM PST
Civil Twilight 6:41 AM PST 5:08 PM PST
Nautical Twilight 6:02 AM PST 5:46 PM PST
Astronomical Twilight 5:25 AM PST 6:23 PM PST
Moon 4:25 AM PST (11/11) 3:08 PM PST (11/11)
Length of Visible Light 10h 26m
Length of Day
9h 17m
Waning Crescent, 6% of the Moon is Illuminated
Nov 11
Waning Crescent
Nov 13
New
Nov 20
First Quarter
Nov 28
Full
Dec 6
Last Quarter

Hourly Weather History & Observations

Time (PST) Temp. Windchill Dew Point Humidity Pressure Visibility Wind Dir Wind Speed Gust Speed Precip Events Conditions
12:00 AM 29.3 °F - 26.4 °F 89% 30.26 in - Calm Calm - N/A   Unknown
1:00 AM 28.8 °F - 26.6 °F 92% 30.27 in - Calm Calm - N/A   Unknown
2:00 AM 28.4 °F - 26.8 °F 94% 30.27 in - Calm Calm - N/A   Unknown
3:00 AM 28.0 °F - 26.4 °F 94% 30.27 in - Calm Calm - N/A   Unknown
4:00 AM 29 °F - 27 °F 91% 30.26 in - Calm Calm - -  
4:00 AM 28.8 °F - 27.3 °F 94% 30.26 in - Calm Calm - N/A   Unknown
5:00 AM 29.8 °F - 28.0 °F 93% 30.26 in - Calm Calm - N/A   Unknown
6:00 AM 29.8 °F - 28.2 °F 94% 30.26 in - ESE 1.2 mph - N/A   Unknown
7:00 AM 31.6 °F - 29.3 °F 91% 30.26 in - East 1.2 mph - N/A   Unknown
8:00 AM 31.5 °F - 28.2 °F 88% 30.26 in - East 2.3 mph - N/A   Unknown
9:00 AM 33.4 °F - 29.3 °F 85% 30.26 in - East 1.2 mph - N/A   Unknown
10:00 AM 36 °F - 30 °F 73% 30.27 in - ESE 1.2 mph - -  
10:00 AM 35.8 °F - 30.4 °F 81% 30.27 in - ESE 1.2 mph - N/A   Unknown
11:00 AM 39.2 °F 35.9 °F 30.2 °F 70% 30.27 in - NE 4.6 mph - N/A   Unknown
12:00 PM 41.4 °F 35.7 °F 28.9 °F 61% 30.25 in - NNE 9.2 mph - N/A   Unknown
1:00 PM 39.9 °F 33.9 °F 31.3 °F 71% 30.24 in - NNE 9.2 mph - N/A   Unknown
2:00 PM 39.0 °F 34.0 °F 34.2 °F 83% 30.22 in - NNE 6.9 mph - N/A   Unknown
3:00 PM 38.7 °F 33.6 °F 34.5 °F 85% 30.20 in - NNE 6.9 mph - 0.01 in   Unknown
4:00 PM 38 °F - 35 °F 87% 30.19 in - NNE 11.5 mph - -  
4:00 PM 38.1 °F 30.7 °F 35.4 °F 90% 30.19 in - NNE 11.5 mph 17.3 mph N/A   Unknown
5:00 PM 37.8 °F 30.2 °F 36.0 °F 93% 30.16 in - NNE 11.5 mph 18.4 mph 0.04 in   Unknown
6:00 PM 38.1 °F 31.2 °F 36.7 °F 95% 30.15 in - NNE 10.4 mph - 0.05 in   Unknown
7:00 PM 38.3 °F 31.9 °F 36.9 °F 95% 30.14 in - NNE 9.2 mph - 0.10 in   Unknown
8:00 PM 38.7 °F - 37.6 °F 96% 30.13 in - Calm Calm - 0.12 in   Unknown
9:00 PM 38.5 °F 36.1 °F 37.4 °F 96% 30.13 in - NNE 3.5 mph - 0.14 in   Unknown
10:00 PM 38 °F - 37 °F 97% 30.11 in - NNE 8.1 mph - -  
10:00 PM 38.5 °F 32.7 °F 37.4 °F 96% 30.11 in - NNE 8.1 mph - 0.09 in   Unknown
11:00 PM 39.0 °F - 37.9 °F 96% 30.11 in - ENE 2.3 mph - 0.08 in   Unknown